Погода Земетчино

Погода Земетчино : погода сейчас, прогноз погоды и архив. Всё, что Вы хотите узнать о погоде Земетчино!

Поиск расширенной информации на нашем сайте:

Другие новости

Новости СМИ2

Главная страница сайта

Новости сайта

03.07.2017

Напоминаем, что на нашем специализированном сайте Метеоцентр.Азия вы можете получить высокодетализированные автоматические прогнозы погоды по пунктам России, СНГ и мира в авиационном формате (включающие направление и скорость ветра, видимость, явления погоды, количество и форму облачности, нижнюю и верхнюю границу облачности).


Погода Земетчино - сегодня

Время (UTC), дата Ветер
(°,м/с) 
Видим.   Явления Облачность Т
(°С)
Тd
(°С)
f(%) Тe
(°С)
Pmin
(гПа)
dP
(гПа)
Po
(мм)
O2
(г/м3)
Тmin Tmax R s Состояние
почвы
21 19.04.18 020 (С) 10 км    8/8 600 м 
[Sc]
+6.9 +5.5 91 +6  1001.6  0.7  739  290           
00 20.04.18 020 (С) 10 км    8/8 600 м 
[Sc]
+6.7 +5.7 93 +6  1001.9  0.3  740  290           
03 20.04.18 030 (СВ) 10 км    10/10 500 м 
[Sc]
+6.9 +5.9 93 +6  1002.9  740  290  +6        влажная 
15 20.04.18 030 (СВ) 5{13}  20000 м    3/3 600 м 
[Cu hum]
+12.4 -0.7 40 +12  1009.2  1.1  745  287    +13.9       
18 20.04.18 040 (СВ) 10 км    ясно 
+7.7 -0.4 56 +8  1011.2  1.7  746  293           
21 20.04.18 040 (СВ) 10 км    ясно 
+4.2 -2.8 60 +5  1011.6  0.2  747  297           
00 21.04.18 тихо ()   10 км    ясно 
+0 -1.9 87 1011.7  0.1  746  301           
03 21.04.18 140 (ЮВ) 20000 м    6/0 средняя 
[Ac trans]
+0.6 -0.9 90 1010.6  -1.1  746  300  -1.5        влажная 
06 21.04.18 200 (Ю) 20000 м    9/0 средняя 
[Ac As]
+7.5 -0.3 58 +7  1008.1  -2  744  292           
09 21.04.18 200 (Ю) 20000 м    10/0 средняя 
[As op]
+7.5 -0.3 58 +6  1008.1  -3.8  741  291           
15 21.04.18 220 (ЮЗ) 5{12}  20000 м    6/0 средняя 
[Ac cast]
+16.4 +5.9 50 +16  994.6  -4.7  734  278    +17.4  0.0     
18 21.04.18 210 (ЮЗ) 5{10}  10 км    8/0 средняя 
[Ac lent]
+13.3 +6.6 64 +13  990.7  -4  731  280           
03 22.04.18 300 (СЗ) 7-14{14}  10 км    8/8 600 м кучево-дожд. 
[Cb calv]
+5.5 +3.3 86 +3  989.4  1.5  730  288  +5.5      влажная 
15 22.04.18 330 (СЗ) 4{12}  10 км    10/10 900 м 
[Sc]
+3.7 -1.3 70 +2  1000  2.3  738  293    +5.5  0.3     
03 23.04.18 300 (СЗ) 20000 м    8/3 1000 м средняя 
[Sc|Ac trans]
+0.4 -2.3 82 -1  1006  0.8  742  299  -0.8    0.0    замёрзшая 
15 23.04.18 330 (СЗ) 5{12}  20000 м    4/4 600 м 
[Cu med, cong]
+6.6 -9.8 30 +5  1008.8  1.3  745  294    +7.7       
18 23.04.18 290 (З) 10 км    ясно 
+2.2 -7.4 49 +2  1011.1  746  299           
21 23.04.18 290 (З) 10 км    ясно 
+0.8 -6.2 59 1011.5  0.4  746  300           
00 24.04.18 310 (СЗ) 10 км    ясно 
-0.2 -6 65 -1  1012.2  0.6  747  302           
03 24.04.18 280 (З) 20000 м    ясно 
-0.3 -4.8 72 -1  1013.3  748  302  -1.8        замёрзшая 
06 24.04.18 310 (СЗ) 20000 м    ясно 
+5.3 -6.3 43 +4  1013.9  0.9  748  296           
09 24.04.18 320 (СЗ) 20000 м    1/1 600 м 
[Cu hum]
+8.4 -6.7 34 +8  1013.1  0.9  748  293           
12 24.04.18 310 (СЗ) 20000 м    3/3 600 м 
[Cu hum]
+10.2 -7.3 28 +9  1012.7  -0.3  748  291           
18 24.04.18 тихо ()   10 км    ясно 
+2.9 -3.6 62 +3  1013  -0.5  748  298           
21 24.04.18 150 (ЮВ) 10 км    ясно 
+0.1 -3.6 76 -1  1013.1  0.1  747  301           
Время (UTC), дата Ветер
(°,м/с) 
Видим.   Явления Облачность Т
(°С)
Тd
(°С)
f(%) Тe
(°С)
Pmin
(гПа)
dP
(гПа)
Po
(мм)
O2
(г/м3)
Тmin Tmax R s Состояние
почвы

Для получения пояснительной информации подведите курсор к названию столбца.

ПОГОДА Земетчино - архив

Всё, что Вы хотите узнать о погоде Земетчино - удобно и подробно!

Выберите нужную дату (начиная с 1 января 2015* года) и нажмите кнопку "Найти".
Будут отображены архивные сводки погоды по пункту Земетчино, начиная с указанной даты.


Отображать данные в формате CSV (для использования в таблицах Excel)


Внимание! Наш архив погоды предназначен исключительно для личного некоммерческого использования в познавательных целях. Если Вам необходимы официальные справки о состоянии погоды (для производственных, юридических, коммерческих и т.п. целей), обращайтесь в органы Росгидромета.

*Примечание: данная дата относится к архиву по метеостанциям СССР (Россия, СНГ, Балтия).
Архив по метеостанциям Зарубежной Европы и Азии (кроме Китая) хранится 10 дней, по другим регионам земного шара (Китай, Африка, Америка, Австралия, Океания) - 1 день.

Земетчино - район местоположения метеостанции


Название, широта, долгота, высота метеостанции:
Земетчино 53.5°ш. 42.6°д. 131 м над ур. моря [Российская Федерация]

Дополнительная информация

В oтличие oт бoльшинства пoгoдных сайтoв мы публикуем пoдрoбную метеoинфoрмацию в детальнoм прoфессиoнальнoм фoрмате.

Характеристики температуры и влажнoсти вoздуха измеряются на высoте 2 м в тени вдали oт зданий и деревьев.
Скoрoсть ветра измеряется на высoте 10 м (на урoвне рoста челoвека скoрoсть ветра ниже в 1.5-2 раза). Если метеoстанция нахoдится в гoрoде или в лесу, тo скoрoсть ветра занижена на 2-4 м/с пo сравнению с oткрытым местoм. Скoрoсть ветра над акватoриями крупных рек и oзёр, а также на вершинах хoлмoв на 2-5 м/с выше, чем в oбычных услoвиях.
Атмoсфернoе давление в разных тoчках местнoсти мoжет значительнo oтличаться oт давления на метеoстанции, в зависимoсти oт услoвий рельефа (при пoдъёме на 10 м давление пoнижается примернo на 1 мм рт.ст.).